Temp
22 22 22 21 26 27 26 25 25 25 25 23 23 24 22 19 19 19 14 15 15 15 15 15 16 16 16 16 16 16 16 16 16 16 16 16 16 16 16 16 16 16 16 16 16 16 16 16 16
21 22 22 22 27 27 26 25 24 24 23 22 22 22 21 18 13 13 14 14 13 15 15 15 15 16 16 15 16 16 16 16 16 16 16 16 16 16 16 16 16 15 15 15 15 16 16 16 16
22 22 23 26 26 26 25 24 24 23 22 23 22 18 17 11 10 10 11 13 13 14 14 14 15 16 16 15 15 15 15 15 15 16 16 15 15 16 16 16 15 15 15 15 15 15 15 16 16
22 21 23 26 24 23 24 24 23 23 23 21 21 18 12 9 9 9 11 12 12 13 13 13 13 13 13 14 13 14 15 15 15 15 15 15 15 15 15 15 15 15 15 15 15 15 15 15 15
22 23 26 24 23 23 23 22 22 23 22 21 21 18 12 9 10 10 11 12 12 13 13 13 14 14 14 14 13 13 14 14 14 14 14 14 14 14 14 14 14 15 15 15 15 15 15 15 15
24 23 26 25 23 23 24 22 23 23 22 20 20 17 11 9 10 10 10 11 11 11 11 12 12 12 12 13 13 13 13 13 14 13 14 14 14 14 15 15 14 14 14 15 14 14 15 15 15
24 25 23 24 23 23 22 22 21 21 20 17 16 17 11 9 10 10 11 11 11 11 11 11 11 11 12 12 12 12 13 13 13 13 13 13 13 13 14 14 14 14 14 14 14 14 14 14 15
21 24 23 22 23 21 21 21 19 17 14 14 14 16 13 10 10 10 10 10 10 10 10 10 11 11 10 11 11 12 12 12 12 13 13 13 13 13 13 13 13 13 13 13 14 14 14 14 14
21 24 23 21 22 21 19 21 16 15 14 12 11 11 10 10 10 10 10 10 10 9 9 8 8 8 9 9 11 11 11 11 11 11 12 12 13 13 13 13 13 13 13 13 13 14 14 14 14
23 23 20 19 20 19 16 16 17 16 14 13 11 11 10 10 11 11 10 9 9 9 8 8 8 8 8 8 8 9 9 10 11 11 11 11 11 12 12 12 13 13 13 13 13 14 14 14 14
21 20 20 18 19 19 17 13 13 16 12 10 11 10 10 9 9 8 8 8 8 8 7 7 7 7 8 7 7 7 8 8 9 10 11 11 11 11 11 12 12 12 13 13 13 13 14 14 14
20 19 19 15 15 16 15 12 10 10 9 9 8 8 8 8 8 7 7 7 7 7 7 7 7 7 7 7 8 7 7 7 7 7 9 9 9 8 8 9 11 11 11 11 12 12 12 13 13
20 18 16 14 13 13 12 11 10 9 8 8 7 7 7 7 7 7 7 7 7 7 6 6 6 6 6 6 7 7 7 7 7 6 6 6 6 6 6 7 6 6 7 8 9 9 10 10 10
19 17 16 15 13 12 11 10 10 7 8 7 7 7 7 6 6 7 6 7 7 6 6 6 5 5 5 5 6 6 6 7 6 7 6 6 6 6 6 6 6 6 6 6 6 6 7 7 8
18 19 18 15 15 14 13 10 8 7 7 7 7 7 6 6 6 6 5 5 5 5 5 5 4 4 4 4 4 5 5 6 6 6 6 6 6 6 6 6 6 6 6 5 6 6 6 6 6
20 21 21 14 15 14 14 10 7 7 7 7 7 7 6 6 6 5 4 4 4 4 4 4 4 4 4 3 3 3 4 4 5 6 6 6 5 5 5 5 5 5 5 5 5 5 5 5 6
21 21 19 18 13 15 16 9 6 6 7 7 7 6 6 6 5 5 4 4 3 3 3 3 3 3 3 3 3 3 4 4 5 5 6 5 5 5 5 5 5 5 5 5 5 5 5 5 5
18 19 19 17 14 12 11 8 6 6 6 6 6 6 6 5 5 5 4 4 3 3 3 3 3 3 3 3 3 3 3 4 4 4 5 5 5 5 5 5 5 5 5 5 5 5 5 5 5
16 16 17 17 12 13 9 7 7 6 6 6 6 6 5 5 5 5 4 4 4 3 3 3 3 3 2 3 3 3 3 3 3 4 4 4 4 4 4 4 5 5 4 4 4 4 4 4 4
16 17 17 15 13 13 9 7 7 6 6 6 6 5 5 5 5 5 4 4 3 3 3 2 2 2 2 2 2 2 2 2 2 2 2 3 3 4 4 4 4 4 4 4 4 4 4 4 4
15 15 14 13 13 10 9 7 7 7 7 6 6 5 5 4 4 4 4 3 3 3 2 2 2 1 1 1 1 1 1 1 2 2 2 2 2 2 3 3 3 4 4 4 4 4 3 4 4
15 14 13 12 12 14 11 14 7 6 7 6 6 5 5 4 4 4 3 3 3 2 2 1 1 1 1 1 0 0 0 0 1 1 1 1 1 1 2 2 3 3 3 3 4 3 3 3 3
13 12 11 11 12 12 11 11 8 7 6 6 6 5 4 4 3 3 3 3 2 2 1 1 1 1 1 0 0 -0 -0 0 0 0 0 0 0 1 1 1 2 2 3 3 3 3 3 3 3
12 15 11 11 12 15 10 10 8 5 5 6 5 4 4 3 3 3 3 2 2 1 1 0 1 1 0 0 0 -0 -0 -1 -1 -0 -0 -0 0 0 1 1 1 1 2 2 3 2 2 3 3
12 14 16 16 16 13 10 10 6 5 7 6 5 4 3 3 3 3 2 1 1 0 0 0 -0 -1 -1 -1 -1 -1 -1 -1 -1 -1 -1 -0 -0 0 0 0 1 1 1 1 1 2 2 2 2
9 11 12 10 13 11 11 10 7 6 6 5 4 4 3 3 3 2 2 1 1 0 0 -1 -1 -2 -2 -2 -2 -2 -2 -2 -2 -2 -1 -1 -1 -0 -0 -0 0 0 0 1 1 1 1 2 2
10 9 8 8 9 9 10 9 5 7 6 5 4 3 3 3 2 2 1 1 0 0 -1 -2 -2 -2 -2 -2 -2 -2 -2 -2 -2 -2 -2 -2 -2 -1 -1 -1 -1 -1 -1 -0 0 1 1 1 2
9 8 9 9 7 8 11 9 6 6 5 4 4 3 3 2 2 1 1 0 -0 -1 -1 -2 -3 -3 -3 -3 -3 -3 -2 -2 -2 -2 -2 -2 -2 -2 -1 -1 -2 -2 -1 -1 -1 -0 0 1 1
8 7 7 7 7 6 6 8 6 6 5 4 3 3 2 2 1 1 1 -0 -1 -1 -2 -3 -3 -3 -3 -3 -3 -3 -2 -2 -2 -2 -2 -2 -2 -2 -2 -2 -2 -2 -2 -2 -2 -1 -1 -0 0
6 5 5 6 5 4 3 5 7 5 4 3 2 2 2 2 1 1 0 -1 -1 -2 -3 -3 -3 -3 -3 -3 -2 -2 -2 -1 -1 -1 -2 -2 -1 -1 -1 -1 -1 -2 -2 -2 -2 -2 -1 -1 -0
Height
1529 1527 1527 1526 1528 1519 1531 1535 1531 1531 1533 1536 1535 1533 1539 1543 1544 1550 1551 1549 1547 1547 1545 1544 1542 1541 1540 1539 1538 1537 1536 1534 1533 1533 1531 1530 1530 1529 1528 1528 1527 1527 1526 1526 1526 1526 1525 1525 1525
1528 1528 1528 1527 1524 1528 1534 1532 1536 1536 1538 1539 1539 1539 1540 1550 1551 1552 1550 1548 1548 1547 1544 1543 1541 1540 1539 1539 1537 1536 1535 1534 1532 1531 1531 1529 1529 1527 1528 1527 1526 1526 1525 1525 1525 1525 1524 1524 1524
1529 1529 1530 1525 1526 1533 1536 1538 1537 1540 1541 1540 1542 1545 1550 1560 1558 1555 1554 1551 1548 1547 1546 1543 1541 1540 1539 1537 1536 1534 1533 1532 1531 1530 1529 1528 1528 1527 1526 1526 1525 1524 1524 1523 1523 1523 1522 1522 1522
1530 1531 1531 1528 1538 1543 1541 1541 1543 1541 1542 1543 1545 1551 1560 1563 1559 1557 1554 1552 1550 1547 1546 1545 1543 1541 1538 1537 1536 1534 1532 1531 1529 1528 1527 1526 1525 1524 1523 1523 1523 1523 1522 1522 1520 1520 1520 1520 1520
1530 1530 1529 1537 1543 1542 1543 1545 1543 1542 1544 1546 1544 1552 1560 1563 1561 1559 1556 1554 1551 1549 1546 1545 1543 1540 1538 1536 1534 1533 1531 1529 1527 1526 1525 1524 1523 1521 1522 1520 1520 1519 1519 1518 1518 1517 1517 1517 1517
1531 1530 1530 1538 1544 1543 1544 1546 1545 1545 1546 1548 1548 1553 1565 1566 1563 1561 1559 1555 1552 1550 1548 1545 1543 1540 1538 1536 1534 1532 1530 1527 1526 1524 1523 1522 1521 1519 1518 1517 1516 1516 1514 1513 1513 1513 1513 1513 1514
1529 1528 1540 1540 1545 1545 1548 1548 1549 1548 1550 1554 1556 1556 1568 1566 1564 1563 1560 1558 1555 1553 1550 1547 1544 1542 1539 1537 1535 1532 1530 1527 1525 1523 1521 1519 1518 1517 1515 1514 1513 1512 1511 1511 1509 1509 1509 1508 1508
1533 1533 1542 1545 1545 1552 1552 1552 1555 1557 1562 1560 1557 1561 1568 1569 1567 1565 1563 1560 1557 1554 1552 1549 1545 1543 1540 1538 1535 1532 1530 1528 1526 1524 1521 1518 1516 1515 1513 1512 1511 1509 1508 1507 1506 1505 1504 1505 1504
1534 1536 1545 1552 1549 1554 1556 1552 1559 1563 1564 1564 1567 1569 1571 1570 1570 1568 1566 1564 1561 1557 1554 1551 1548 1545 1541 1540 1535 1533 1530 1527 1524 1522 1520 1518 1516 1513 1510 1509 1507 1506 1505 1503 1502 1501 1501 1501 1501
1538 1543 1556 1559 1556 1559 1563 1561 1562 1566 1568 1570 1574 1576 1576 1575 1573 1570 1568 1565 1563 1559 1556 1553 1549 1546 1542 1540 1535 1533 1529 1526 1523 1520 1517 1514 1512 1510 1508 1506 1504 1503 1502 1501 1499 1498 1497 1497 1496
1545 1552 1558 1559 1558 1557 1561 1563 1566 1563 1574 1580 1580 1579 1578 1576 1574 1571 1569 1567 1564 1562 1557 1554 1550 1547 1544 1540 1536 1532 1529 1526 1522 1518 1515 1512 1509 1507 1504 1501 1500 1498 1497 1496 1495 1494 1493 1492 1492
1551 1555 1556 1563 1559 1559 1564 1572 1577 1580 1585 1585 1582 1582 1580 1576 1574 1573 1569 1566 1564 1560 1556 1553 1549 1546 1544 1540 1537 1532 1528 1524 1522 1516 1511 1509 1505 1503 1501 1498 1495 1493 1491 1490 1489 1487 1487 1488 1488
1554 1561 1565 1569 1569 1572 1576 1579 1583 1590 1591 1589 1585 1583 1581 1579 1576 1575 1571 1568 1564 1560 1555 1551 1547 1543 1539 1535 1532 1527 1523 1521 1517 1514 1510 1505 1503 1500 1497 1496 1493 1490 1486 1483 1483 1482 1481 1481 1481
1557 1563 1568 1572 1574 1576 1576 1582 1584 1595 1594 1593 1591 1588 1586 1583 1581 1577 1571 1567 1564 1559 1554 1549 1543 1539 1533 1529 1525 1520 1518 1515 1511 1508 1506 1502 1499 1496 1493 1492 1489 1487 1485 1481 1476 1476 1476 1475 1474
1562 1563 1565 1573 1572 1574 1571 1582 1592 1594 1593 1592 1590 1589 1586 1584 1581 1576 1572 1566 1561 1556 1550 1545 1540 1535 1530 1525 1519 1514 1511 1507 1504 1502 1498 1496 1492 1491 1487 1486 1484 1483 1481 1479 1475 1470 1471 1470 1469
1560 1559 1556 1573 1570 1572 1572 1586 1599 1597 1596 1593 1591 1589 1587 1584 1581 1576 1569 1564 1558 1552 1546 1541 1536 1530 1525 1519 1514 1509 1505 1502 1498 1496 1492 1490 1486 1485 1481 1479 1478 1478 1477 1475 1471 1466 1465 1465 1465
1555 1556 1559 1563 1574 1572 1568 1591 1603 1602 1598 1594 1591 1590 1588 1583 1578 1573 1568 1562 1555 1549 1543 1536 1530 1525 1519 1514 1508 1503 1499 1495 1493 1490 1487 1484 1481 1480 1476 1473 1473 1472 1471 1470 1466 1462 1459 1460 1459
1570 1563 1561 1566 1575 1580 1585 1597 1602 1601 1599 1597 1596 1593 1588 1582 1577 1572 1566 1560 1553 1547 1539 1532 1526 1520 1515 1509 1504 1498 1493 1489 1486 1482 1478 1477 1475 1474 1472 1468 1465 1464 1463 1461 1460 1457 1454 1454 1454
1577 1573 1568 1567 1582 1580 1590 1596 1601 1603 1602 1600 1595 1591 1587 1581 1576 1571 1564 1557 1549 1543 1535 1529 1522 1515 1510 1504 1498 1491 1486 1480 1477 1474 1470 1468 1467 1465 1464 1461 1459 1458 1456 1453 1452 1450 1449 1447 1447
1574 1573 1568 1573 1580 1579 1591 1598 1602 1601 1601 1600 1596 1591 1585 1578 1572 1565 1558 1552 1545 1538 1531 1523 1516 1508 1503 1497 1491 1485 1478 1473 1468 1464 1460 1459 1457 1456 1453 1452 1451 1449 1447 1445 1444 1442 1441 1440 1440
1579 1580 1580 1581 1577 1585 1587 1594 1597 1600 1599 1597 1594 1590 1584 1577 1569 1560 1553 1547 1540 1532 1524 1517 1509 1501 1495 1490 1483 1477 1471 1465 1460 1456 1451 1449 1447 1445 1443 1442 1440 1439 1439 1436 1435 1435 1435 1433 1433
1580 1582 1581 1579 1577 1564 1583 1561 1590 1598 1597 1596 1593 1587 1581 1575 1567 1560 1551 1543 1536 1528 1520 1511 1502 1493 1487 1482 1475 1468 1462 1456 1451 1447 1442 1439 1437 1434 1434 1433 1433 1431 1430 1429 1428 1428 1427 1429 1426
1588 1583 1582 1580 1574 1574 1579 1575 1587 1598 1597 1593 1591 1586 1579 1573 1566 1556 1548 1539 1530 1521 1512 1503 1493 1485 1479 1472 1466 1459 1451 1446 1440 1437 1432 1429 1427 1425 1423 1423 1422 1421 1421 1421 1421 1421 1421 1421 1419
1593 1574 1577 1578 1571 1559 1584 1583 1586 1600 1602 1594 1590 1585 1579 1571 1561 1552 1544 1535 1524 1513 1503 1493 1485 1475 1469 1462 1455 1448 1441 1435 1429 1425 1421 1417 1415 1413 1413 1412 1411 1410 1410 1410 1410 1411 1412 1412 1412
1594 1573 1562 1557 1556 1568 1581 1578 1596 1606 1600 1598 1593 1586 1578 1571 1558 1547 1536 1526 1515 1504 1494 1485 1476 1465 1458 1451 1443 1436 1429 1423 1416 1412 1408 1405 1402 1401 1400 1401 1400 1400 1399 1400 1400 1400 1401 1403 1403
1608 1600 1597 1604 1577 1577 1578 1575 1593 1604 1598 1594 1592 1586 1577 1567 1556 1544 1532 1521 1510 1499 1488 1478 1467 1456 1446 1439 1430 1423 1416 1410 1404 1399 1395 1392 1390 1388 1389 1389 1389 1389 1389 1390 1391 1391 1392 1394 1395
1610 1611 1620 1610 1602 1593 1580 1589 1604 1599 1595 1589 1585 1578 1570 1562 1552 1540 1528 1517 1504 1494 1482 1471 1459 1447 1436 1426 1417 1409 1403 1396 1390 1385 1382 1379 1377 1376 1376 1376 1377 1377 1378 1379 1380 1381 1383 1385 1387
1621 1625 1611 1610 1612 1597 1572 1576 1595 1598 1595 1589 1581 1576 1568 1558 1547 1534 1523 1511 1500 1488 1476 1464 1450 1437 1426 1416 1407 1398 1390 1383 1377 1372 1367 1365 1364 1364 1364 1365 1365 1366 1367 1369 1371 1372 1375 1377 1380
1623 1624 1624 1625 1622 1615 1602 1585 1609 1606 1602 1596 1586 1576 1566 1555 1543 1531 1519 1507 1496 1483 1470 1456 1442 1429 1417 1407 1396 1387 1378 1372 1366 1361 1356 1353 1351 1351 1351 1353 1354 1355 1357 1359 1361 1363 1366 1368 1371
1634 1637 1635 1624 1626 1632 1634 1614 1608 1611 1606 1600 1588 1578 1566 1555 1543 1530 1517 1504 1491 1477 1463 1450 1436 1424 1411 1399 1388 1377 1369 1362 1355 1350 1346 1342 1340 1340 1341 1342 1343 1345 1348 1351 1353 1355 1357 1360 1363
Wind_Speed
5 4 1 0 4 2 4 4 2 2 6 14 12 13 15 16 7 4 3 5 12 9 7 6 2 3 3 4 5 4 4 4 4 4 3 3 5 6 7 7 6 5 5 6 7 7 7 6 5
6 4 2 2 3 3 5 4 6 4 10 3 7 3 10 8 16 6 2 9 9 3 5 6 3 2 4 6 4 4 5 6 7 6 5 5 6 7 9 9 8 8 8 8 8 8 8 9 8
4 3 2 1 1 4 4 7 6 6 5 6 3 13 7 11 10 9 10 8 10 5 4 4 1 3 2 1 3 1 2 3 4 6 7 7 8 9 9 10 10 10 10 10 11 10 10 10 10
4 2 2 4 10 8 6 7 6 3 5 10 5 10 9 15 3 10 11 10 12 11 12 13 13 13 11 8 8 9 7 4 3 4 4 5 5 6 8 9 10 11 12 13 12 13 13 12 12
2 0 3 7 11 8 10 8 4 4 4 10 4 8 8 8 8 8 9 10 10 11 11 11 10 10 10 10 10 9 11 11 9 8 7 5 5 6 7 7 5 8 11 12 13 15 16 16 15
1 1 5 6 9 7 9 8 5 8 9 10 9 7 7 5 10 15 15 17 16 15 16 16 16 14 13 11 11 11 9 8 9 8 7 8 10 9 10 12 11 12 12 14 13 13 15 18 18
3 3 6 8 7 7 7 4 10 5 13 15 9 5 8 9 10 13 15 15 16 16 16 17 17 17 16 15 15 13 12 11 9 8 8 8 9 9 10 11 12 12 14 14 15 14 16 17 16
4 3 6 4 3 5 10 7 6 18 14 2 10 5 6 7 9 12 13 14 15 16 16 17 16 17 18 17 16 16 14 13 13 12 11 10 9 9 10 11 12 13 13 15 16 16 16 18 20
5 3 6 5 4 7 12 6 15 15 21 27 13 14 10 8 10 11 11 14 16 18 20 20 20 20 20 18 20 19 18 18 16 15 14 12 12 12 12 12 12 12 12 13 13 14 15 15 17
6 6 5 3 6 10 17 14 6 9 16 18 17 16 13 12 13 15 17 19 21 22 22 22 23 22 22 20 22 22 21 21 20 20 19 18 17 16 14 14 14 14 15 15 16 16 16 16 16
5 5 7 8 4 5 10 24 14 6 15 17 15 15 15 15 17 18 18 19 20 20 21 22 22 22 22 23 21 19 21 21 21 22 22 21 20 18 18 18 18 17 17 17 18 18 20 20 19
12 6 5 11 11 6 11 15 30 26 17 15 17 15 18 20 20 20 20 20 21 21 22 22 24 25 26 26 23 22 20 19 18 19 23 21 18 17 16 17 19 20 19 19 19 20 20 20 21
16 13 15 15 25 27 26 28 25 23 16 15 18 19 20 21 21 20 21 22 24 25 25 24 26 26 26 26 23 22 21 20 20 19 17 17 15 14 14 14 14 14 17 18 18 18 20 21 20
11 19 14 15 19 18 24 19 10 15 13 17 19 21 22 24 24 25 28 27 27 27 26 26 25 25 26 25 24 23 21 21 21 22 21 20 18 17 16 16 17 16 16 14 15 16 17 19 19
14 9 9 14 5 5 9 17 10 7 10 16 17 19 22 24 26 27 27 27 28 27 27 26 26 25 25 25 25 26 25 23 22 23 24 23 21 21 20 20 19 19 17 17 15 13 14 15 16
2 3 4 8 9 5 8 5 9 9 12 16 19 21 25 25 27 28 28 28 27 27 28 28 27 28 27 27 27 26 25 25 25 24 23 23 21 22 22 21 21 20 20 19 17 14 14 14 16
5 6 6 2 11 4 5 9 8 9 13 18 23 24 25 27 29 30 30 29 28 28 29 29 28 27 26 26 26 25 26 26 26 26 26 24 22 22 21 23 24 22 22 22 20 17 16 17 17
11 9 6 7 7 11 12 14 10 11 14 20 25 26 28 30 30 31 31 29 29 28 28 28 29 28 27 28 27 26 26 26 25 25 26 25 25 25 24 23 24 24 24 23 21 19 18 19 20
9 9 9 12 4 6 8 10 7 11 19 23 27 32 32 32 31 32 32 31 31 31 31 31 31 30 28 29 29 29 29 28 27 26 26 26 27 27 26 26 25 24 23 22 21 20 20 21 19
7 6 13 5 2 9 7 8 7 9 16 21 27 32 33 34 35 37 37 36 34 35 34 33 32 32 31 30 30 30 30 29 29 29 30 31 31 29 29 28 28 27 26 25 23 21 23 23 19
6 12 17 17 14 3 8 7 1 6 14 24 28 32 34 37 39 41 41 39 40 40 38 37 36 34 34 33 32 31 31 31 30 29 29 29 29 29 28 28 28 29 27 26 24 23 23 26 23
6 16 18 15 4 3 5 3 4 5 15 27 33 37 38 39 41 40 42 43 42 40 39 39 39 39 37 35 34 35 36 36 34 34 32 31 29 30 29 29 29 30 30 29 28 26 25 24 25
7 22 13 4 2 3 2 7 7 5 19 25 36 38 39 41 41 43 44 45 46 44 44 43 41 41 38 38 36 36 38 38 38 37 36 34 32 30 29 30 31 32 33 33 31 29 27 25 25
19 19 3 3 2 3 3 8 9 8 18 25 37 41 42 44 45 45 46 47 49 48 48 48 45 45 42 40 38 38 40 40 41 39 39 38 36 34 30 29 29 29 30 30 30 28 25 25 26
20 19 4 4 5 6 4 11 9 11 20 30 34 39 43 44 46 49 51 52 52 53 52 50 48 48 46 42 41 41 39 41 41 41 39 37 36 35 33 30 29 29 28 28 28 28 26 25 26
10 15 5 6 8 12 9 8 5 9 32 38 37 38 44 48 49 51 52 52 53 53 51 51 50 51 50 46 45 41 41 38 39 38 38 38 37 36 32 30 29 30 29 29 29 29 28 27 26
6 8 3 6 3 6 3 4 6 21 31 40 42 46 48 50 51 52 54 54 53 53 52 51 51 52 53 51 49 45 41 38 37 36 36 38 35 35 36 32 29 29 28 28 28 29 30 28 27
10 7 2 3 8 9 7 9 8 25 27 34 43 46 48 50 53 54 54 53 54 53 52 52 57 56 57 55 51 47 42 39 38 36 35 34 34 32 31 30 32 31 27 27 26 27 27 28 29
5 5 4 1 3 4 8 4 8 22 25 29 43 47 49 52 54 55 55 56 54 54 55 58 59 60 58 57 54 49 44 39 37 36 33 30 29 29 28 26 28 28 26 24 24 25 26 25 27
10 4 4 3 5 1 4 6 9 28 33 39 44 47 51 51 53 54 55 55 56 57 60 61 62 61 60 57 53 50 46 40 36 33 28 28 28 24 22 22 23 23 23 22 21 22 24 25 26
Wind_Direction
346 349 352 61 221 218 101 68 347 46 74 60 65 68 80 38 4 44 331 31 47 32 32 13 344 2 3 333 322 312 307 317 316 327 315 281 260 257 269 270 273 270 265 265 271 275 273 272 264
353 3 34 268 263 229 91 32 37 61 93 55 56 46 39 63 23 360 73 34 38 37 100 79 82 84 61 37 7 335 302 297 291 289 293 282 269 269 268 268 271 272 268 264 267 274 275 272 269
14 30 312 20 34 53 75 40 67 92 24 360 101 53 40 349 350 356 1 35 58 27 20 45 273 244 200 134 57 12 280 302 325 309 294 292 282 279 278 276 271 270 271 271 268 269 272 270 267
6 353 58 57 82 56 32 43 30 52 57 41 57 74 79 16 33 18 28 45 51 43 41 27 24 21 22 357 324 324 323 312 309 286 311 319 306 285 276 272 273 275 272 268 268 265 266 267 268
38 65 98 93 78 77 55 37 22 41 74 37 7 99 84 29 31 38 35 40 37 33 37 33 21 6 4 1 356 349 334 324 321 300 286 295 311 303 287 282 288 275 269 273 274 269 264 259 261
126 241 135 112 99 74 55 31 55 48 48 27 72 96 68 46 48 50 47 53 53 56 53 51 43 37 31 23 13 7 358 351 328 321 302 291 288 287 292 293 287 291 270 262 268 269 268 264 263
97 76 100 116 108 75 26 16 36 27 27 30 359 62 96 54 63 66 62 61 55 48 41 37 33 28 25 21 17 10 359 352 349 333 318 308 294 287 281 277 276 273 280 279 276 270 264 257 262
68 82 118 42 86 74 18 51 43 31 42 325 24 38 77 48 71 65 53 47 42 35 28 23 18 14 11 6 3 360 358 351 340 331 325 317 312 302 293 288 284 284 283 285 285 280 281 282 272
66 116 95 51 24 55 21 77 67 79 73 59 70 78 77 74 49 41 34 29 24 20 17 12 8 4 3 359 354 354 350 346 341 337 332 327 313 305 306 303 301 300 298 295 293 292 291 287 282
32 72 59 358 44 94 61 49 48 79 57 61 61 57 54 45 34 28 22 16 12 10 10 8 5 1 357 353 348 345 344 340 336 332 328 326 325 315 306 299 296 298 301 303 302 299 297 294 291
53 106 122 37 57 136 114 61 47 163 53 44 48 47 46 40 32 28 20 14 8 1 1 1 360 358 355 348 345 339 335 329 327 322 318 314 313 312 309 306 301 294 292 296 296 297 298 296 293
106 111 90 51 62 92 81 80 64 63 69 63 63 56 47 39 31 23 16 8 2 356 354 351 349 346 342 340 333 329 321 311 312 309 310 310 308 304 305 299 296 297 297 300 300 299 295 292 292
101 101 89 85 80 75 77 71 75 56 55 62 60 50 40 31 24 14 8 360 355 349 345 342 335 329 324 322 318 317 313 302 293 298 298 303 302 301 301 301 303 300 297 296 299 297 293 294 292
121 106 102 77 84 77 86 66 47 48 55 50 42 39 34 26 17 8 3 355 347 338 333 328 324 321 315 310 304 301 300 297 290 285 286 288 288 289 291 290 291 294 296 297 295 299 301 294 291
127 126 123 45 35 96 158 55 64 63 53 48 40 29 18 10 2 357 349 344 339 333 327 325 322 320 318 315 310 297 291 289 287 282 279 281 281 280 281 282 285 284 283 289 290 291 295 297 296
188 214 285 37 10 43 200 74 63 52 51 40 27 15 7 1 356 351 346 341 338 336 334 328 322 319 316 314 310 306 301 285 282 281 278 278 281 283 275 275 276 278 277 279 278 282 288 290 293
53 333 321 182 30 0 3 122 82 52 41 32 21 10 4 356 355 352 348 342 338 336 333 329 327 321 318 315 312 305 301 297 281 274 274 278 281 285 280 271 272 271 271 272 274 273 275 281 284
323 318 320 328 28 61 71 111 95 54 36 26 17 8 1 355 351 346 342 338 334 332 328 326 323 321 317 314 310 307 302 296 288 278 273 273 276 279 282 280 275 270 269 269 269 270 272 274 279
296 292 306 354 59 20 93 125 103 49 31 18 9 3 355 349 343 341 340 337 334 333 330 325 320 317 314 310 308 304 301 295 288 284 277 272 273 275 276 278 277 270 266 265 266 270 274 275 279
327 330 345 349 77 322 147 130 100 40 28 13 4 358 351 345 342 339 338 337 335 331 328 323 318 314 311 307 302 297 294 292 289 284 278 275 275 276 275 273 273 270 267 267 268 271 274 274 276
27 1 334 311 316 34 159 171 170 46 12 3 0 351 349 348 343 339 336 335 332 328 325 322 317 314 313 309 304 299 293 292 289 285 282 278 276 275 273 272 269 266 263 262 265 268 268 271 274
332 341 319 312 287 337 213 315 104 17 7 1 354 351 347 343 339 335 334 333 330 327 324 321 316 312 310 307 302 297 292 289 287 286 285 281 277 274 270 266 264 264 261 260 261 265 266 260 261
326 319 321 301 225 236 124 276 77 26 359 355 351 349 345 341 338 335 334 332 328 326 324 322 319 314 312 308 302 298 294 290 289 285 282 279 277 273 269 263 262 261 258 257 258 260 258 253 254
326 319 190 213 208 225 55 346 73 18 349 351 348 345 343 340 336 334 334 332 329 328 326 324 322 317 316 311 305 299 294 292 288 285 281 278 276 273 267 264 261 261 259 256 256 257 255 251 250
8 357 356 325 341 7 309 308 68 11 350 350 346 342 339 338 337 336 335 332 331 328 327 325 323 319 317 314 309 303 297 292 287 285 281 278 274 270 266 263 262 260 257 254 256 255 254 250 248
31 23 39 314 328 319 307 329 73 342 346 342 343 340 339 339 337 335 333 331 329 329 328 326 322 319 320 317 313 306 305 294 289 284 279 275 273 272 268 264 262 259 258 255 253 253 250 247 247
12 29 344 286 249 277 331 91 151 345 346 340 343 341 339 336 335 334 334 333 332 331 328 325 323 320 322 324 321 318 311 305 298 288 282 276 276 269 270 265 261 258 256 253 251 251 246 245 245
65 349 321 8 348 317 341 331 353 348 343 340 339 338 336 335 334 333 333 333 333 331 329 328 326 326 326 325 324 321 316 313 310 306 298 287 278 272 266 263 261 256 256 250 247 247 241 242 243
29 26 41 289 338 312 318 48 28 346 339 338 334 334 335 334 332 332 334 334 333 333 332 332 332 330 329 330 332 329 326 320 313 306 303 298 290 279 269 260 257 254 252 246 245 244 239 242 242
55 50 359 346 342 16 277 294 352 350 335 336 334 334 334 334 332 333 334 335 336 334 334 334 334 335 340 340 339 340 340 337 329 321 311 299 292 287 276 268 264 255 248 242 241 237 239 238 238